Tracking 17141 objects as of 5-July-2015
HD Live streaming from Space Station

KMS 3-2

Track KMS 3-2 now!
10-day predictions
KMS 3-2 is classified as:


NORAD ID: 39026
Int'l Code: 2012-072A
Perigee: 480.0 km
Apogee: 543.9 km
Inclination: 97.3 °
Period: 94.7 minutes
Semi major axis: 6882 km
RCS: 0.4897 m2 (medium)
Launch date: December 12, 2012
Source: North Korea (NKOR)

KWANGMYONGSONG 3 is a North Korean Earth observation satellite, which according to the DPRK is designed for weather forecast purposes, and whose launch is widely portrayed in the West to be a veiled ballistic missile test.
Your satellite tracking list
Your tracking list is empty





NASA's NSSDC Master Catalog

Two Line Element Set (TLE):
1 39026U 12072A   15185.85533695  .00004786  00000-0  21685-3 0  9996
2 39026 097.2818 216.8098 0046445 171.0850 189.1221 15.20342357141390

Source of the keplerian elements: AFSPC

N2YO: 412